Content
SEND FEEDBACK

Daily
Averages
Monthly
Summary
United States of America

CHELSEA, MICHIGAN


Home > North America > United States > Michigan
Elevation: 900 feet     Latitude: 42 19N     Longitude: 084 01W

WEATHER
 
SELECT A DAY
Number of Records: 207,075;   Date Range: 1/1/95 - 10/23/14
 
SHARE

PRINT THIS DATA

[ ← Previous Day ]
WEATHER ALMANAC - JANUARY 24, 2013
[ Next Day → ]
[ °C ]   °F
Weather ElementAverageHighLow
Temperature12.1 °F19 °F (2:53 pm)5 °F (7:53 pm)
Dewpoint3.5 °F9 °F (12:53 am)-4 °F (4:53 pm)
Humidity69.9 %84 % (12:53 am)41 % (4:53 pm)
Barometer30.44 in30.60 in (10:53 am)30.14 in (12:53 am)
Wind Speed6.8 mph12.7 mph (2:05 am)
Wind Gust20.7 mph (2:05 am)
Weather ElementAverage
Visibility9.2 mi
Wind DirectionWSW (243.8 °)

Weather ElementTotal
Precipitation---
Heating Degree Days53 (Base 65)
Averaged from 29 records on January 24, 2013
WEATHER CONDITIONS BREAKOUT
WIND DIRECTION BREAKOUT
WEATHER BY HOUR - JANUARY 24, 2013
[ °C ]   °F
Local TimeTemperatureDewpointHumidityBarometerVisibilityWind DirectionWind SpeedGust SpeedPrecipitationEventsConditions
12:53 AM12.9 °F9.0 °F84 %30.14 in10.0 miNNW (330°)10.4 mph0.00 inOvercast
1:53 AM14.0 °F9.0 °F80 %30.19 in2.5 miNNW (340°)11.5 mph0.00 inSnowLight Snow
2:05 AM14.0 °F8.6 °F79 %30.15 in3.0 miNorth (350°)12.7 mph20.7 mph0.00 inSnowLight Snow
2:20 AM12.2 °F6.8 °F79 %30.16 in10.0 miNNW (340°)11.5 mph0.00 inScattered Clouds
2:53 AM12.9 °F6.1 °F74 %30.24 in8.0 miNorth (350°)10.4 mph18.4 mph0.00 inMostly Cloudy
3:51 AM12.2 °F6.8 °F79 %30.24 in10.0 miNNW (340°)8.1 mph20.7 mph0.00 inScattered Clouds
3:53 AM10.9 °F6.1 °F81 %30.29 in10.0 miNNW (340°)10.4 mph0.00 inPartly Cloudy
4:36 AM10.4 °F5.0 °F79 %30.27 in9.0 miNNW (340°)8.1 mph0.00 inSnowLight Snow
4:53 AM10.0 °F5.0 °F80 %30.34 in9.0 miNW (320°)10.4 mph0.00 inScattered Clouds
5:53 AM8.1 °F3.9 °F83 %30.39 in9.0 miNW (320°)8.1 mphPartly Cloudy
6:30 AM8.6 °F3.2 °F79 %30.36 in6.0 miNNW (330°)11.5 mph0.00 inSnowLight Snow
6:53 AM8.1 °F3.9 °F83 %30.43 in10.0 miNNW (340°)10.4 mph0.00 inPartly Cloudy
7:53 AM8.1 °F3.0 °F80 %30.48 in10.0 miNorth (360°)9.2 mphClear
8:53 AM10.0 °F3.0 °F73 %30.51 in10.0 miNorth (360°)10.4 mphClear
9:53 AM12.0 °F3.9 °F70 %30.56 in10.0 miNorth (360°)8.1 mphClear
10:53 AM15.1 °F5.0 °F64 %30.60 in10.0 miNorth (360°)6.9 mphClear
11:53 AM17.1 °F5.0 °F59 %30.60 in10.0 miNNE (30°)5.8 mphClear
12:53 PM18.0 °F1.9 °F50 %30.58 in10.0 miNE (50°)3.5 mphClear
1:53 PM18.0 °F1.0 °F48 %30.58 in10.0 miWest (280°)8.1 mphClear
2:53 PM19.0 °F1.0 °F46 %30.57 in10.0 miWNW (300°)5.8 mphClear
3:53 PM18.0 °F-0.9 °F44 %30.58 in10.0 miWNW (290°)5.8 mphClear
4:53 PM16.0 °F-4.0 °F41 %30.59 in10.0 miNW (320°)5.8 mphClear
5:53 PM14.0 °F-2.9 °F47 %30.59 in10.0 miNW (320°)3.5 mphClear
6:53 PM7.0 °F-4.0 °F61 %30.60 in10.0 miCalmClear
7:53 PM5.0 °F-0.9 °F76 %30.58 in10.0 miCalmClear
8:53 PM7.0 °F1.0 °F77 %30.56 in10.0 miCalmClear
9:53 PM10.0 °F3.9 °F76 %30.54 in10.0 miCalmClear
10:53 PM10.9 °F5.0 °F77 %30.53 in10.0 miCalmClear
11:53 PM12.0 °F6.1 °F77 %30.52 in10.0 miCalmMostly Cloudy
Hourly data recorded from KARB, located miles away from Chelsea, Michigan







STORIES FROM OUR PARTNERS